QPF
0.00 0.00 0.00 0.00 0.00 0.00 0.00 0.00 0.00 0.00 0.00 0.00 0.00 0.00 0.00 0.00 0.00 0.00 0.00 0.00 0.00 0.00 0.00 0.00 0.00 0.00 0.00 0.00 0.00 0.00 0.00 0.00 0.00 0.00 0.00 0.00 0.00 0.00 0.00 0.00 0.00 0.00 0.00 0.01
0.00 0.00 0.00 0.00 0.00 0.00 0.00 0.00 0.00 0.00 0.00 0.00 0.00 0.00 0.00 0.00 0.00 0.00 0.00 0.00 0.00 0.00 0.00 0.00 0.00 0.00 0.00 0.00 0.00 0.00 0.00 0.00 0.00 0.00 0.00 0.00 0.00 0.00 0.00 0.00 0.00 0.00 0.00 0.00
0.00 0.00 0.00 0.00 0.00 0.00 0.00 0.00 0.00 0.00 0.00 0.00 0.00 0.00 0.00 0.00 0.00 0.00 0.00 0.00 0.00 0.00 0.00 0.00 0.00 0.00 0.00 0.00 0.00 0.00 0.00 0.00 0.00 0.00 0.00 0.00 0.00 0.00 0.00 0.00 0.00 0.00 0.00 0.00
0.00 0.00 0.00 0.00 0.00 0.00 0.00 0.00 0.00 0.00 0.00 0.00 0.00 0.00 0.00 0.00 0.00 0.00 0.00 0.00 0.00 0.00 0.00 0.00 0.00 0.00 0.00 0.00 0.00 0.00 0.00 0.00 0.00 0.00 0.00 0.00 0.00 0.00 0.00 0.00 0.00 0.00 0.00 0.00
0.00 0.00 0.00 0.00 0.00 0.00 0.00 0.00 0.00 0.00 0.00 0.00 0.00 0.00 0.00 0.00 0.00 0.00 0.00 0.00 0.00 0.00 0.00 0.00 0.00 0.00 0.00 0.00 0.00 0.00 0.00 0.00 0.00 0.00 0.00 0.00 0.00 0.00 0.00 0.00 0.00 0.00 0.00 0.00
0.00 0.00 0.00 0.00 0.00 0.00 0.00 0.00 0.00 0.00 0.00 0.00 0.00 0.00 0.00 0.00 0.00 0.00 0.00 0.00 0.00 0.00 0.00 0.00 0.00 0.00 0.00 0.00 0.00 0.00 0.00 0.00 0.00 0.00 0.00 0.00 0.00 0.00 0.00 0.00 0.00 0.00 0.00 0.00
0.00 0.00 0.00 0.00 0.00 0.00 0.00 0.00 0.00 0.00 0.00 0.00 0.00 0.00 0.00 0.00 0.00 0.00 0.00 0.00 0.00 0.00 0.00 0.00 0.00 0.00 0.00 0.00 0.00 0.00 0.00 0.00 0.00 0.00 0.00 0.00 0.00 0.00 0.00 0.00 0.00 0.00 0.00 0.00
0.00 0.00 0.00 0.00 0.00 0.00 0.00 0.00 0.00 0.00 0.00 0.00 0.00 0.00 0.00 0.00 0.00 0.00 0.00 0.00 0.00 0.00 0.00 0.00 0.00 0.00 0.00 0.00 0.00 0.00 0.00 0.00 0.00 0.00 0.00 0.00 0.00 0.00 0.00 0.00 0.00 0.00 0.00 0.00
0.00 0.00 0.00 0.00 0.00 0.00 0.00 0.00 0.00 0.00 0.00 0.00 0.00 0.00 0.00 0.00 0.00 0.00 0.00 0.00 0.00 0.00 0.00 0.00 0.00 0.00 0.00 0.00 0.00 0.00 0.00 0.00 0.00 0.00 0.00 0.00 0.00 0.00 0.00 0.00 0.00 0.00 0.00 0.00
0.00 0.00 0.00 0.00 0.00 0.00 0.00 0.00 0.00 0.00 0.00 0.00 0.00 0.00 0.00 0.00 0.00 0.00 0.00 0.00 0.00 0.00 0.00 0.00 0.00 0.00 0.00 0.00 0.00 0.00 0.00 0.00 0.00 0.00 0.00 0.00 0.00 0.00 0.00 0.00 0.00 0.00 0.00 0.00
0.00 0.00 0.00 0.00 0.00 0.00 0.00 0.00 0.00 0.00 0.00 0.00 0.00 0.00 0.00 0.00 0.00 0.00 0.00 0.00 0.00 0.00 0.00 0.00 0.00 0.00 0.00 0.00 0.00 0.00 0.00 0.00 0.00 0.00 0.00 0.00 0.00 0.00 0.00 0.00 0.00 0.00 0.00 0.00
0.00 0.00 0.00 0.00 0.00 0.00 0.00 0.00 0.00 0.00 0.00 0.00 0.00 0.00 0.00 0.00 0.00 0.00 0.00 0.00 0.00 0.00 0.00 0.00 0.00 0.00 0.00 0.00 0.00 0.00 0.00 0.00 0.00 0.00 0.00 0.00 0.00 0.00 0.00 0.00 0.00 0.00 0.00 0.00
0.00 0.00 0.00 0.00 0.00 0.00 0.00 0.00 0.00 0.00 0.00 0.00 0.00 0.00 0.00 0.00 0.00 0.00 0.00 0.00 0.00 0.00 0.00 0.00 0.00 0.00 0.00 0.00 0.00 0.00 0.00 0.00 0.00 0.00 0.00 0.00 0.00 0.00 0.00 0.00 0.00 0.00 0.00 0.00
0.00 0.00 0.00 0.00 0.00 0.00 0.00 0.00 0.00 0.00 0.00 0.00 0.00 0.00 0.00 0.00 0.00 0.00 0.00 0.00 0.00 0.00 0.00 0.00 0.00 0.00 0.00 0.00 0.00 0.00 0.00 0.00 0.00 0.00 0.00 0.00 0.00 0.00 0.00 0.00 0.00 0.00 0.00 0.00
0.00 0.00 0.00 0.00 0.00 0.00 0.00 0.00 0.00 0.00 0.00 0.00 0.00 0.00 0.00 0.00 0.00 0.00 0.00 0.00 0.00 0.00 0.00 0.00 0.00 0.00 0.00 0.00 0.00 0.00 0.00 0.00 0.00 0.00 0.00 0.00 0.00 0.00 0.00 0.00 0.00 0.00 0.00 0.00
0.00 0.00 0.00 0.00 0.00 0.00 0.00 0.00 0.00 0.00 0.00 0.00 0.00 0.00 0.00 0.00 0.00 0.00 0.00 0.00 0.00 0.00 0.00 0.00 0.00 0.00 0.00 0.00 0.00 0.00 0.00 0.00 0.00 0.00 0.00 0.00 0.00 0.00 0.00 0.00 0.00 0.00 0.00 0.00
0.00 0.00 0.00 0.00 0.00 0.00 0.00 0.00 0.00 0.00 0.00 0.00 0.00 0.00 0.00 0.00 0.00 0.00 0.00 0.00 0.00 0.00 0.00 0.00 0.00 0.00 0.00 0.00 0.00 0.00 0.00 0.00 0.00 0.00 0.00 0.00 0.00 0.00 0.00 0.00 0.00 0.00 0.00 0.00
0.00 0.00 0.00 0.00 0.00 0.00 0.00 0.00 0.00 0.00 0.00 0.00 0.00 0.00 0.00 0.00 0.00 0.00 0.00 0.00 0.00 0.00 0.00 0.00 0.00 0.00 0.00 0.00 0.00 0.00 0.00 0.00 0.00 0.00 0.00 0.00 0.00 0.00 0.00 0.00 0.00 0.00 0.00 0.00
0.00 0.00 0.00 0.01 0.00 0.00 0.00 0.00 0.00 0.00 0.00 0.00 0.00 0.00 0.00 0.00 0.00 0.00 0.00 0.00 0.00 0.00 0.00 0.00 0.00 0.00 0.00 0.00 0.00 0.00 0.00 0.00 0.00 0.00 0.00 0.00 0.00 0.00 0.00 0.00 0.00 0.00 0.00 0.00
0.00 0.00 0.01 0.01 0.01 0.00 0.00 0.00 0.00 0.00 0.00 0.00 0.00 0.00 0.00 0.00 0.00 0.00 0.00 0.00 0.00 0.00 0.00 0.00 0.00 0.00 0.00 0.00 0.00 0.00 0.00 0.00 0.00 0.00 0.00 0.00 0.00 0.00 0.00 0.00 0.00 0.00 0.00 0.00
0.00 0.00 0.01 0.01 0.01 0.01 0.00 0.00 0.00 0.01 0.00 0.00 0.00 0.00 0.00 0.00 0.00 0.00 0.00 0.00 0.00 0.00 0.00 0.00 0.00 0.00 0.00 0.00 0.00 0.00 0.00 0.00 0.00 0.00 0.00 0.00 0.00 0.00 0.00 0.00 0.00 0.00 0.00 0.00
0.00 0.01 0.01 0.01 0.02 0.01 0.00 0.00 0.01 0.01 0.00 0.00 0.00 0.00 0.00 0.00 0.00 0.00 0.00 0.00 0.00 0.00 0.00 0.00 0.00 0.00 0.00 0.00 0.00 0.00 0.00 0.00 0.00 0.00 0.00 0.00 0.00 0.00 0.00 0.00 0.00 0.00 0.00 0.00
0.00 0.00 0.00 0.01 0.01 0.00 0.00 0.00 0.00 0.00 0.00 0.00 0.00 0.00 0.00 0.00 0.00 0.00 0.00 0.00 0.00 0.00 0.00 0.00 0.00 0.00 0.00 0.00 0.00 0.00 0.00 0.00 0.00 0.00 0.00 0.00 0.00 0.00 0.00 0.00 0.00 0.00 0.00 0.00
0.00 0.00 0.00 0.00 0.00 0.00 0.00 0.00 0.00 0.00 0.00 0.00 0.00 0.00 0.00 0.00 0.00 0.00 0.00 0.00 0.00 0.00 0.00 0.00 0.00 0.00 0.00 0.00 0.00 0.00 0.00 0.00 0.00 0.00 0.00 0.00 0.00 0.00 0.00 0.00 0.00 0.00 0.00 0.00
0.00 0.00 0.00 0.00 0.00 0.00 0.00 0.00 0.00 0.00 0.00 0.00 0.00 0.00 0.00 0.00 0.00 0.00 0.00 0.00 0.00 0.00 0.00 0.00 0.00 0.00 0.00 0.00 0.00 0.00 0.00 0.00 0.00 0.00 0.00 0.00 0.00 0.00 0.00 0.00 0.00 0.00 0.00 0.00
0.00 0.00 0.00 0.00 0.00 0.00 0.00 0.00 0.00 0.00 0.00 0.00 0.00 0.00 0.00 0.00 0.00 0.00 0.00 0.00 0.00 0.00 0.00 0.00 0.00 0.00 0.00 0.00 0.00 0.00 0.00 0.00 0.00 0.00 0.00 0.00 0.00 0.00 0.00 0.00 0.00 0.00 0.00 0.00
MSLP
1013.20 1012.86 1012.05 1011.68 1011.71 1011.60 1011.80 1011.46 1011.33 1011.28 1012.53 1012.65 1011.40 1010.24 1009.62 1009.24 1008.78 1008.54 1008.42 1008.25 1008.27 1008.13 1008.37 1009.15 1009.80 1010.85 1011.64 1012.32 1013.01 1013.57 1014.41 1015.29 1015.96 1016.40 1016.86 1017.28 1017.48 1018.11 1019.02 1019.38 1019.50 1019.65 1019.92 1020.43
1013.48 1012.50 1011.85 1011.92 1012.10 1012.42 1012.40 1012.01 1011.67 1011.61 1012.45 1012.94 1011.32 1009.68 1008.97 1008.59 1007.63 1007.63 1007.45 1007.06 1007.06 1006.96 1007.26 1007.90 1008.90 1009.83 1010.79 1011.44 1012.13 1012.94 1013.62 1014.50 1015.18 1015.75 1016.29 1016.80 1017.27 1017.72 1018.30 1019.19 1019.48 1019.58 1019.75 1020.19
1012.55 1012.16 1012.16 1012.56 1012.81 1012.84 1012.48 1012.25 1012.03 1012.03 1012.79 1012.52 1011.69 1009.22 1007.65 1006.84 1006.73 1006.82 1006.61 1006.45 1006.42 1006.18 1006.30 1006.87 1007.81 1008.98 1010.03 1010.72 1011.32 1011.96 1012.65 1013.45 1014.31 1015.01 1015.74 1016.53 1017.21 1017.64 1018.22 1018.48 1019.06 1019.26 1019.50 1019.93
1012.72 1012.32 1012.83 1012.97 1012.88 1013.06 1012.55 1012.32 1012.74 1012.70 1013.06 1011.97 1011.74 1008.37 1006.67 1006.22 1005.82 1005.68 1005.69 1005.70 1005.44 1005.51 1005.94 1006.53 1007.02 1007.73 1008.98 1009.90 1010.78 1011.40 1012.06 1012.73 1013.48 1014.28 1014.75 1015.13 1015.75 1016.39 1017.02 1017.69 1018.50 1019.01 1019.28 1019.77
1012.18 1012.87 1013.11 1013.10 1012.94 1013.34 1013.26 1013.41 1013.40 1013.44 1013.21 1012.55 1011.36 1010.29 1006.22 1005.55 1005.00 1004.92 1004.75 1004.71 1004.87 1005.05 1005.46 1005.92 1006.65 1007.49 1008.13 1009.34 1010.29 1011.05 1011.75 1012.36 1012.96 1013.55 1014.02 1014.50 1015.05 1015.45 1015.72 1016.73 1017.87 1018.68 1019.25 1019.54
1012.94 1013.67 1013.36 1013.34 1014.00 1013.98 1014.26 1014.21 1014.21 1014.04 1013.55 1011.97 1010.21 1009.29 1005.16 1004.86 1004.15 1004.04 1004.27 1004.32 1004.66 1004.94 1005.51 1006.16 1006.79 1007.41 1008.14 1009.07 1009.97 1010.74 1011.34 1011.90 1012.66 1013.36 1013.82 1014.02 1014.52 1014.92 1015.21 1016.12 1017.30 1018.07 1018.75 1019.52
1012.91 1013.23 1013.71 1014.02 1014.24 1014.75 1014.49 1014.19 1013.84 1013.57 1013.09 1010.73 1010.10 1009.04 1004.97 1004.98 1004.65 1004.64 1004.51 1004.58 1004.75 1005.53 1005.92 1006.35 1007.03 1007.82 1008.39 1008.88 1009.62 1010.29 1010.84 1011.18 1011.82 1012.53 1013.35 1013.84 1014.20 1014.46 1014.66 1015.52 1016.42 1017.41 1018.24 1018.87
1011.86 1012.05 1012.90 1013.38 1012.99 1013.40 1013.86 1013.32 1012.90 1012.17 1012.15 1010.96 1010.76 1007.95 1004.78 1004.77 1004.71 1004.89 1005.07 1005.05 1005.15 1005.66 1006.21 1006.70 1006.94 1007.52 1008.28 1009.11 1009.80 1010.26 1010.66 1010.88 1011.33 1011.77 1012.55 1013.46 1013.90 1014.15 1014.43 1015.11 1015.67 1016.21 1016.89 1017.73
1011.27 1011.56 1012.27 1012.84 1012.83 1012.93 1013.65 1013.32 1012.65 1012.84 1012.69 1012.37 1009.68 1006.42 1004.95 1004.84 1005.18 1005.06 1004.91 1004.97 1005.01 1005.51 1005.79 1006.36 1006.75 1007.28 1008.21 1009.02 1009.52 1010.06 1010.58 1011.25 1011.46 1011.77 1012.14 1012.83 1013.31 1013.68 1013.94 1014.66 1015.28 1015.83 1015.94 1016.80
1011.54 1011.81 1012.80 1013.64 1013.70 1013.30 1012.98 1012.82 1013.20 1013.14 1012.38 1011.29 1008.46 1006.78 1004.63 1004.57 1004.78 1004.80 1005.00 1005.12 1005.28 1005.74 1005.98 1006.30 1006.76 1007.26 1008.03 1008.77 1009.43 1010.00 1010.35 1010.84 1011.31 1011.52 1012.05 1012.39 1012.62 1013.06 1013.49 1014.11 1014.61 1015.35 1015.78 1016.38
1012.62 1013.01 1013.78 1014.09 1013.11 1012.38 1013.22 1012.89 1012.52 1012.02 1011.61 1010.23 1008.90 1005.81 1004.47 1004.35 1004.62 1004.85 1005.24 1005.77 1005.97 1006.08 1006.30 1006.53 1007.11 1007.80 1008.30 1009.08 1009.46 1009.83 1010.18 1010.57 1011.04 1011.37 1011.78 1012.18 1012.36 1012.74 1013.16 1013.57 1014.11 1014.76 1015.27 1016.03
1013.31 1013.50 1013.40 1012.90 1012.50 1012.41 1011.94 1011.37 1011.62 1011.34 1010.74 1010.74 1009.81 1006.11 1004.74 1004.91 1005.47 1005.68 1005.63 1005.77 1006.25 1006.81 1006.77 1007.05 1007.39 1008.18 1008.67 1009.02 1009.50 1009.59 1009.99 1010.40 1010.81 1011.19 1011.54 1011.62 1012.09 1012.46 1012.88 1013.16 1013.71 1014.45 1014.99 1015.66
1015.39 1014.89 1014.78 1013.75 1013.21 1013.24 1012.58 1011.58 1011.64 1011.21 1011.25 1010.40 1009.54 1006.71 1005.56 1005.15 1005.56 1005.69 1006.00 1005.90 1006.17 1006.42 1006.49 1006.96 1007.31 1007.97 1008.55 1008.95 1009.26 1009.46 1009.69 1009.98 1010.40 1010.95 1011.36 1011.43 1011.43 1011.89 1012.47 1013.02 1013.59 1014.25 1014.87 1015.64
1016.29 1016.44 1015.19 1013.08 1011.84 1011.84 1012.17 1011.79 1011.49 1011.54 1011.09 1009.67 1008.89 1006.86 1005.50 1005.40 1005.62 1005.56 1005.71 1005.54 1005.63 1006.00 1006.09 1006.32 1006.87 1007.19 1007.26 1007.89 1008.49 1008.67 1009.07 1009.42 1009.93 1010.38 1010.82 1010.92 1011.11 1010.87 1011.63 1012.38 1013.10 1013.74 1014.26 1015.14
1016.87 1016.65 1016.20 1014.75 1013.79 1012.96 1012.17 1011.95 1011.58 1011.36 1010.51 1010.20 1007.88 1007.91 1005.22 1005.41 1005.67 1005.28 1004.94 1005.08 1005.12 1005.14 1005.44 1005.41 1006.00 1006.52 1006.79 1007.30 1007.68 1008.09 1008.32 1008.76 1009.30 1009.94 1010.23 1010.31 1010.86 1010.77 1011.23 1011.85 1012.53 1013.41 1014.01 1014.58
1017.01 1016.73 1016.38 1014.95 1013.79 1013.57 1012.69 1011.99 1011.21 1010.65 1010.25 1009.96 1008.54 1007.01 1005.74 1005.21 1005.41 1005.26 1005.07 1005.19 1005.00 1004.98 1005.15 1005.30 1005.46 1005.86 1006.18 1006.42 1006.87 1007.10 1007.47 1007.97 1008.63 1009.05 1009.48 1010.05 1010.54 1010.68 1011.28 1011.93 1012.62 1013.26 1013.87 1014.49
1017.89 1017.30 1016.66 1014.71 1013.78 1013.81 1012.43 1010.12 1010.00 1009.64 1009.28 1008.83 1008.04 1006.38 1006.22 1005.51 1005.46 1005.32 1005.10 1005.38 1005.13 1004.93 1005.03 1005.08 1005.42 1005.62 1005.84 1006.16 1006.38 1006.55 1006.81 1007.33 1007.98 1008.56 1009.12 1009.69 1010.13 1010.47 1011.18 1012.01 1012.77 1013.22 1013.66 1014.34
1017.53 1017.76 1017.41 1015.55 1014.62 1013.13 1010.88 1009.44 1009.15 1008.74 1008.49 1008.57 1008.38 1007.63 1006.66 1006.14 1005.72 1004.97 1005.31 1005.48 1005.06 1005.30 1005.23 1005.36 1005.47 1005.70 1006.20 1006.53 1006.82 1006.93 1007.08 1007.29 1007.92 1008.60 1009.11 1009.58 1009.89 1010.34 1010.90 1011.63 1012.34 1012.98 1013.44 1014.04
1016.34 1016.99 1016.76 1016.12 1014.21 1012.21 1010.62 1009.08 1008.83 1008.68 1008.38 1008.85 1008.60 1008.19 1007.07 1006.14 1006.06 1004.90 1005.46 1005.41 1005.35 1005.60 1005.94 1006.42 1006.70 1007.00 1007.14 1007.19 1007.37 1007.53 1007.66 1007.90 1008.27 1008.63 1009.11 1009.63 1010.05 1010.50 1011.01 1011.60 1012.16 1012.65 1013.24 1013.91
1015.65 1015.70 1016.16 1015.18 1013.44 1011.39 1009.42 1008.54 1007.97 1008.64 1009.15 1010.76 1010.48 1009.77 1008.95 1007.91 1006.96 1006.02 1006.86 1006.86 1006.80 1007.19 1007.44 1007.68 1007.93 1007.98 1008.10 1007.94 1008.15 1008.11 1007.93 1007.99 1008.26 1008.56 1008.77 1009.14 1009.83 1010.55 1011.14 1011.53 1012.00 1012.60 1013.16 1013.82
1015.18 1015.10 1014.70 1013.78 1012.50 1011.34 1010.28 1009.90 1009.79 1010.12 1011.06 1011.36 1011.70 1010.87 1010.16 1009.59 1009.03 1008.62 1008.35 1007.90 1008.22 1008.37 1008.63 1008.75 1008.77 1008.83 1008.94 1008.92 1008.73 1008.69 1008.69 1008.61 1008.58 1008.72 1009.08 1009.32 1009.71 1010.26 1010.83 1011.50 1012.07 1012.67 1013.37 1014.13
1013.72 1013.77 1013.33 1012.87 1012.10 1010.71 1010.44 1010.42 1010.73 1011.05 1011.07 1011.48 1011.61 1011.08 1010.88 1010.79 1010.08 1009.18 1008.92 1009.15 1008.89 1009.02 1009.31 1009.65 1009.96 1009.88 1009.58 1009.56 1009.31 1009.28 1009.33 1009.43 1009.35 1009.36 1009.53 1009.92 1010.10 1010.47 1010.99 1011.57 1012.38 1013.02 1013.56 1014.27
1012.91 1012.21 1011.78 1011.65 1010.45 1010.19 1009.92 1010.48 1010.38 1010.69 1010.90 1011.00 1011.53 1011.38 1011.20 1010.74 1010.18 1009.95 1008.96 1009.66 1009.62 1009.78 1010.41 1010.30 1010.19 1010.25 1010.42 1010.25 1009.92 1009.89 1010.36 1009.99 1010.00 1010.14 1010.53 1010.72 1010.98 1011.22 1011.44 1011.85 1012.30 1013.05 1013.93 1014.50
1011.46 1011.36 1011.12 1011.02 1010.08 1009.73 1009.24 1009.87 1010.46 1010.73 1010.72 1010.63 1010.86 1011.01 1010.96 1010.83 1010.69 1010.36 1009.61 1009.93 1010.42 1010.56 1010.63 1011.00 1010.98 1011.05 1011.06 1010.98 1010.74 1010.52 1010.47 1010.62 1010.64 1010.60 1010.88 1011.50 1011.87 1012.16 1012.24 1012.54 1012.86 1013.07 1013.66 1014.44
1011.49 1011.06 1010.45 1010.33 1009.86 1010.02 1009.80 1009.85 1010.17 1010.58 1010.81 1010.64 1011.02 1011.13 1010.98 1010.53 1010.14 1010.48 1010.48 1010.58 1011.00 1010.88 1011.39 1011.70 1011.58 1011.80 1011.72 1011.77 1011.69 1011.32 1011.00 1010.89 1010.95 1011.10 1011.42 1011.88 1012.43 1012.90 1013.18 1013.08 1013.31 1013.46 1013.83 1014.48
1011.15 1010.68 1010.74 1009.72 1009.68 1009.82 1009.41 1009.63 1010.17 1010.63 1010.54 1010.54 1010.85 1010.65 1010.66 1010.80 1010.62 1010.71 1010.88 1011.43 1011.66 1011.60 1012.25 1012.29 1012.49 1012.60 1012.46 1012.28 1012.28 1012.44 1011.66 1011.48 1011.25 1011.55 1011.72 1011.99 1012.16 1013.06 1013.69 1013.75 1014.11 1014.21 1014.32 1014.72
Thickness
5665 5662 5662 5678 5683 5684 5677 5680 5682 5697 5686 5681 5697 5708 5718 5726 5734 5737 5740 5744 5745 5749 5753 5750 5745 5738 5733 5728 5722 5717 5709 5701 5694 5687 5681 5677 5675 5671 5665 5661 5660 5659 5656 5651
5649 5652 5674 5676 5674 5666 5665 5667 5675 5691 5681 5668 5690 5702 5718 5724 5736 5739 5742 5749 5751 5755 5755 5752 5746 5740 5733 5728 5724 5716 5709 5701 5694 5688 5682 5677 5672 5669 5664 5657 5655 5654 5651 5647
5647 5660 5665 5657 5653 5652 5660 5661 5670 5675 5668 5672 5672 5693 5720 5735 5739 5740 5746 5751 5752 5754 5755 5754 5748 5740 5733 5728 5723 5717 5710 5702 5694 5687 5681 5673 5667 5663 5658 5657 5653 5651 5648 5643
5641 5657 5647 5646 5649 5652 5650 5671 5661 5661 5651 5658 5670 5676 5717 5729 5734 5742 5746 5747 5753 5755 5754 5751 5749 5746 5734 5728 5722 5716 5709 5701 5694 5685 5681 5677 5671 5665 5662 5657 5650 5646 5643 5638
5641 5633 5633 5637 5647 5648 5646 5646 5646 5645 5644 5648 5662 5649 5701 5730 5724 5737 5747 5751 5752 5754 5753 5751 5747 5741 5738 5726 5718 5712 5705 5698 5691 5685 5679 5675 5669 5667 5666 5658 5648 5641 5636 5632
5627 5622 5632 5637 5628 5635 5633 5630 5629 5631 5635 5633 5669 5668 5697 5714 5732 5742 5746 5750 5751 5750 5746 5743 5740 5737 5730 5723 5714 5707 5700 5694 5686 5679 5674 5670 5665 5662 5661 5654 5643 5637 5631 5624
5616 5614 5617 5618 5615 5615 5621 5621 5612 5613 5611 5637 5655 5654 5698 5709 5723 5727 5735 5737 5743 5736 5735 5733 5728 5722 5719 5716 5709 5703 5696 5691 5684 5677 5670 5664 5660 5657 5657 5649 5642 5632 5624 5619
5603 5603 5611 5615 5625 5618 5610 5623 5613 5602 5614 5639 5614 5642 5696 5712 5717 5720 5721 5725 5727 5725 5723 5720 5722 5718 5713 5706 5700 5694 5688 5685 5679 5674 5667 5658 5654 5651 5649 5642 5637 5632 5625 5617
5603 5603 5609 5612 5619 5619 5601 5597 5631 5603 5595 5591 5637 5678 5701 5702 5697 5701 5713 5718 5718 5717 5717 5713 5715 5712 5704 5696 5692 5687 5681 5672 5669 5665 5660 5654 5649 5645 5643 5636 5630 5625 5623 5614
5599 5586 5590 5586 5591 5598 5601 5612 5588 5589 5581 5585 5632 5649 5672 5692 5695 5702 5694 5699 5702 5702 5703 5703 5703 5702 5695 5689 5683 5677 5673 5666 5659 5656 5651 5647 5644 5639 5635 5629 5625 5618 5613 5607
5581 5575 5569 5569 5580 5595 5584 5585 5590 5600 5598 5595 5602 5641 5693 5691 5686 5684 5685 5682 5680 5682 5684 5687 5685 5680 5678 5671 5669 5666 5662 5656 5650 5645 5642 5637 5635 5631 5627 5623 5618 5611 5606 5598
5567 5565 5564 5576 5586 5588 5592 5598 5594 5580 5588 5586 5588 5623 5683 5677 5669 5665 5666 5671 5669 5662 5664 5666 5663 5660 5658 5658 5655 5654 5651 5647 5640 5636 5632 5631 5627 5622 5618 5615 5609 5602 5596 5589
5534 5542 5535 5553 5567 5560 5564 5585 5582 5589 5580 5567 5570 5609 5669 5661 5651 5656 5651 5658 5657 5653 5657 5653 5649 5646 5645 5643 5641 5639 5639 5636 5630 5625 5621 5621 5621 5616 5609 5603 5597 5590 5584 5577
5517 5509 5531 5561 5580 5573 5559 5564 5571 5566 5554 5575 5575 5604 5639 5643 5641 5645 5646 5649 5650 5645 5646 5645 5640 5635 5638 5635 5631 5631 5629 5626 5621 5616 5614 5613 5610 5610 5602 5595 5587 5581 5576 5567
5501 5497 5508 5529 5542 5550 5554 5552 5556 5552 5564 5550 5589 5579 5626 5631 5627 5634 5640 5640 5640 5636 5631 5635 5631 5629 5625 5623 5622 5619 5618 5617 5616 5609 5604 5603 5597 5596 5591 5585 5579 5571 5565 5559
5490 5492 5501 5505 5533 5527 5523 5536 5544 5551 5556 5552 5571 5578 5620 5627 5621 5616 5620 5617 5617 5622 5622 5621 5623 5621 5618 5618 5613 5613 5613 5608 5603 5601 5597 5591 5586 5583 5578 5571 5564 5558 5553 5547
5456 5471 5480 5499 5522 5490 5491 5538 5546 5550 5557 5559 5551 5584 5598 5601 5602 5603 5606 5597 5603 5609 5611 5611 5608 5609 5608 5608 5608 5607 5604 5599 5593 5587 5581 5576 5572 5570 5564 5556 5549 5544 5540 5533
5452 5453 5454 5473 5481 5481 5519 5548 5547 5545 5551 5553 5548 5559 5576 5580 5588 5598 5590 5585 5596 5597 5599 5598 5599 5599 5595 5592 5591 5592 5587 5585 5578 5572 5567 5562 5559 5556 5552 5545 5539 5533 5527 5521
5464 5450 5447 5446 5470 5493 5509 5541 5536 5533 5536 5544 5537 5544 5562 5573 5565 5582 5583 5581 5584 5584 5584 5577 5574 5572 5571 5572 5572 5569 5566 5563 5560 5557 5553 5548 5545 5542 5537 5531 5526 5522 5516 5509
5449 5453 5436 5454 5454 5468 5520 5543 5542 5523 5501 5493 5499 5513 5525 5539 5538 5567 5552 5553 5555 5554 5551 5550 5550 5550 5549 5550 5547 5549 5551 5550 5548 5545 5543 5540 5532 5525 5520 5516 5511 5505 5499 5493
5431 5426 5429 5438 5443 5451 5494 5492 5500 5483 5492 5470 5472 5487 5500 5510 5516 5525 5528 5531 5527 5525 5523 5523 5525 5524 5524 5523 5526 5529 5530 5531 5531 5528 5524 5521 5517 5511 5506 5499 5493 5487 5479 5471
5436 5429 5434 5442 5432 5442 5471 5471 5468 5459 5466 5463 5460 5475 5473 5479 5487 5499 5508 5506 5503 5503 5501 5496 5496 5497 5500 5502 5505 5508 5508 5505 5506 5506 5504 5500 5497 5493 5488 5481 5473 5466 5460 5452
5407 5432 5435 5435 5447 5450 5460 5453 5456 5453 5451 5455 5449 5451 5457 5464 5470 5476 5488 5483 5481 5479 5472 5473 5475 5478 5476 5477 5482 5486 5480 5484 5484 5482 5478 5477 5474 5471 5467 5461 5455 5446 5437 5431
5418 5427 5412 5413 5436 5446 5453 5444 5438 5435 5437 5441 5440 5440 5440 5447 5449 5454 5461 5460 5457 5455 5455 5454 5456 5456 5456 5458 5460 5462 5463 5461 5462 5463 5459 5453 5449 5446 5445 5440 5435 5430 5423 5414
5398 5401 5403 5398 5417 5418 5424 5426 5422 5416 5415 5421 5422 5423 5423 5430 5437 5436 5441 5437 5436 5439 5437 5434 5437 5436 5436 5436 5437 5441 5444 5444 5443 5442 5438 5434 5429 5425 5420 5420 5415 5412 5406 5398
5385 5386 5381 5388 5406 5397 5408 5409 5397 5393 5400 5406 5405 5410 5411 5411 5417 5419 5419 5414 5415 5418 5412 5412 5410 5411 5414 5417 5417 5415 5421 5423 5424 5420 5418 5415 5413 5405 5398 5395 5388 5385 5383 5379